BSB police report ending December 27, 2017

Print
"12/26/2017","00:12","217CR0033080","T/S","T/S @ MONTANA ST AND ALUMINUM ST","MONTANA ST AND ALUMINUM ST","",""
"12/26/2017","00:23","217CR0033081","MEDICAL - EMERGENCY","MEDICAL - EMERGENCY","2708 HARVARD","",""
"12/26/2017","00:26","217CR0033082","LED BUSINESS","LED BUSINESS","400 S CLARK ST","",""
"12/26/2017","02:47","217CR0033083","ATL","ATL","400 S CLARK ST JAMES ER","",""
"12/26/2017","05:28","217CR0033084","MEDICAL - EMERGENCY","MEDICAL - EMERGENCY","1514 NORTH B ST","",""
"12/26/2017","05:48","217CR0033085","MEDICAL - EMERGENCY","MEDICAL - EMERGENCY","1002 S MONTANA ST #B","",""
"12/26/2017","07:14","217CR0033086","WELFARE CHECK","WELFARE CHECK","GEORGE AND HARRISON","",""
"12/26/2017","08:52","217CR0033087","FIRE- GAS ODOR","FIRE- GAS ODOR","3346 HARRISON AVE","",""
"12/26/2017","09:02","217CR0033088","CIVIL PAPER SERVICE","CIVIL PAPER SERVICE","706 W GALENA","",""
"12/26/2017","09:03","217CR0033089","TRAFFIC HAZARD","TRAFFIC HAZARD","ALABAMA AND GALENA","",""
"12/26/2017","09:10","217CR0033090","FRAUD","FRAUD","2102 HARRISON AVE","",""
"12/26/2017","09:38","217CR0033091","CIVIL PAPER SERVICE","CIVIL PAPER SERVICE","105 RAMPART DR #110","",""
"12/26/2017","09:46","217CR0033092","ACCIDENT-MHP","ACCIDENT-MHP","I15 MM 127B SB","",""
"12/26/2017","09:49","217CR0033093","ACCIDENT","ACCIDENT","HARRISON AVE AND CLEVLAND ST","",""
"12/26/2017","10:02","217CR0033094","DETENTION BUSINESS","DETENTION BUSINESS","************","",""
"12/26/2017","10:08","217CR0033095","WELFARE CHECK","WELFARE CHECK","634 W BROADWAY","",""
"12/26/2017","10:23","217CR0033096","TRAFFIC HAZARD","TRAFFIC HAZARD","FARRAGUT AND NORTH DRIVE","",""
"12/26/2017","10:29","217CR0033097","ACCIDENT-MHP","ACCIDENT-MHP","I90 MM 236 WB","",""
"12/26/2017","10:35","217CR0033098","ATL","ATL","COPPER KING MANSION/219 W GRAN","",""
"12/26/2017","10:39","217CR0033099","FRAUD","FORGERY/COUNTERFEIT","1053 COLORADO","",""
"12/26/2017","10:50","217CR0033100","STOLEN VEHICLE","MOTOR VEHICLE THEFT","825 W COPPER","",""
"12/26/2017","11:32","217CR0033101","THEFT","ROBBERY","3901 HARRISON AVE","ARREST(s) MADE",""
"12/26/2017","12:12","217CR0033102","ALARM - BURGLARY","ALARM - BURGLARY","************","",""
"12/26/2017","12:14","217CR0033103","ASSIST OTHER AGENCY","ASSIST OTHER AGENCY","I90 MM213 WB","",""
"12/26/2017","13:08","217CR0033104","SUSPICIOUS ACTIVITY","SUSPICIOUS ACTIVITY","205 W WOOLMAN","",""
"12/26/2017","13:16","217CR0033105","LED BUSINESS","LED BUSINESS","UPTOWN FOOT PATROL","",""
"12/26/2017","13:25","217CR0033106","ACCIDENT","CARELESS DRIVING","3100 BLK HARRISON","",""
"12/26/2017","13:42","217CR0033107","UNWANTED PERSON","UNWANTED PERSON","************","",""
"12/26/2017","14:14","217CR0033108","WELFARE CHECK","WELFARE CHECK","412 W MERCURY","",""
"12/26/2017","14:26","217CR0033109","TRAFFIC HAZARD","TRAFFIC HAZARD","EVANS ST AND LEXINGTON AVE","",""
"12/26/2017","14:30","217CR0033110","UNWANTED PERSON","UNWANTED PERSON","************","",""
"12/26/2017","14:36","217CR0033111","ACCIDENT","ACCIDENT","635 MARYLAND AVE","",""
"12/26/2017","14:42","217CR0033112","DETENTION BUSINESS","DETENTION BUSINESS","************","",""
"12/26/2017","14:48","217CR0033113","THEFT","THEFT","215 S DAKOTA ST","",""
"12/26/2017","14:51","217CR0033114","THEFT","THEFT","1301 HARRISON AVE","",""
"12/26/2017","14:55","217CR0033115","TRAFFIC","TRAFFIC","PORTER AND MARCIA","",""
"12/26/2017","15:01","217CR0033116","ASSIST OTHER AGENCY","ASSIST OTHER AGENCY","I90 236 EBND","",""
"12/26/2017","15:05","217CR0033117","FOUND PROPERTY","FOUND PROPERTY","************","",""
"12/26/2017","15:18","217CR0033118","CIVIL PAPER SERVICE","CIVIL PAPER SERVICE","3400 HILL APT 1005","",""
"12/26/2017","15:19","217CR0033119","VANDALISM/CRIMINAL MISCHIEF","VANDALISM/CRIMINAL MISCHIEF","106 W BROADWAY","",""
"12/26/2017","15:22","217CR0033120","DISTURBANCE","DISORDERLY CONDUCT","50 W BROADWAY/LEGGITT APT","ARREST(s) MADE",""
"12/26/2017","15:23","217CR0033121","ACCIDENT","ACCIDENT","3100 HARRISON BUTTE PLAZA MALL","",""
"12/26/2017","15:26","217CR0033122","THEFT","THEFT","1301 HARRISON AVE","",""
"12/26/2017","15:39","217CR0033123","CIVIL PAPER SERVICE","CIVIL PAPER SERVICE","2971 TEAL APT #11","",""
"12/26/2017","15:44","217CR0033124","ASSIST OTHER AGENCY","ASSIST OTHER AGENCY","I90 MM 233 EB","",""
"12/26/2017","15:45","217CR0033125","T/S","DRIVING W/OUT VALID D/L","ARGYLE AND THORTON","",""
"12/26/2017","15:49","217CR0033126","DISTURBANCE","DISTURBANCE","1900 BLK SILVERBOW HOMES","",""
"12/26/2017","15:52","217CR0033127","VEHICLE INSPECTION","VEHICLE INSPECTION","1255 WESTSIDE BLVD","",""
"12/26/2017","16:05","217CR0033128","CIVIL PAPER SERVICE","CIVIL PAPER SERVICE","100 E FRONT","",""
"12/26/2017","16:13","217CR0033129","THEFT","THEFT","904 W PARK BSW GROUP HOME","",""
"12/26/2017","16:30","217CR0033130","WELFARE CHECK","WELFARE CHECK","4655 HARRISON AVE","",""
"12/26/2017","16:48","217CR0033131","WELFARE CHECK","WELFARE CHECK","1809 PORTER","",""
"12/26/2017","16:52","217CR0033132","DISTURBANCE","DISTURBANCE","16 W GALENA APT D","",""
"12/26/2017","17:17","217CR0033133","T/S","T/S","MARCIA AND FLORENCE","",""
"12/26/2017","17:24","217CR0033134","ATL","ATL","CLARK ST AND GRANITE ST","",""
"12/26/2017","17:35","217CR0033135","ALL OTHER","ALL OTHER","EXCELSIOR AVE AND PORPHYRY ST","",""
"12/26/2017","18:22","217CR0033136","UNWANTED PERSON","UNWANTED PERSON","************","",""
"12/26/2017","18:32","217CR0033138","ALL OTHER","ALL OTHER","920 S COLORADO","",""
"12/26/2017","18:45","217CR0033139","T/S","T/S","GRAND AND THOMAS","",""
"12/26/2017","18:58","217CR0033140","THEFT","THEFT","1022 MARYLAND APT A","",""
"12/26/2017","19:46","217CR0033141","MEDICAL - ASSIST","MEDICAL - ASSIST","************","",""
"12/26/2017","19:56","217CR0033142","T/S","T/S @ AMHERST ST AND CONTINENTAL DR","AMHERST ST AND CONTINENTAL DR","",""
"12/26/2017","20:05","217CR0033143","T/S","T/S","TEXAS SILVER BOW","",""
"12/26/2017","20:19","217CR0033144","T/S","T/S","GRANITE AND WYOMING","",""
"12/26/2017","20:19","217CR0033145","UNKNOWN PROBLEM","UNKNOWN PROBLEM","1021 GAYLORD","",""
"12/26/2017","20:35","217CR0033146","ASSIST OTHER AGENCY","ASSIST OTHER AGENCY","I15 MM 121 NB","",""
"12/26/2017","20:37","217CR0033147","DISTURBANCE","DISTURBANCE","118 N IDAHO ST","",""
"12/26/2017","20:44","217CR0033148","ASSIST OTHER AGENCY","ASSIST OTHER AGENCY","I90 MM 216 WB","",""
"12/26/2017","20:51","217CR0033149","PROWLER","PROWLER","MERCURY ST AND WASHINGTON ST","",""
"12/26/2017","21:04","217CR0033150","ALL OTHER","ALL OTHER","2929 HARRISON AVE","",""
"12/26/2017","21:08","217CR0033151","FIREWORKS COMPLAINT","FIREWORKS COMPLAINT","2000 BLK ARGYLE","",""
"12/26/2017","21:23","217CR0033152","ASSIST OTHER AGENCY","ASSIST OTHER AGENCY","I90 MM 237 WB","",""
"12/26/2017","21:34","217CR0033153","ACCIDENT - INJURY","ACCIDENT - INJURY","HARRISON AND ELIZABETH WARREN","",""
"12/26/2017","21:37","217CR0033154","T/S","T/S","1080 S MONTANA","",""
"12/26/2017","21:40","217CR0033155","WELFARE CHECK","WELFARE CHECK","4655 HARRISON AVE","",""
"12/26/2017","21:46","217CR0033156","ACCIDENT","ACCIDENT","CENTENIAL AND EXCELSIOR","",""
"12/26/2017","22:00","217CR0033157","ALARM - FIRE","ALARM - FIRE","3939 HARRISON MURDOCHS","",""
"12/26/2017","22:23","217CR0033158","ALARM - BURGLARY","ALARM - BURGLARY","************","",""
"12/26/2017","23:00","217CR0033159","ATL","ATL","BIG M","",""
"12/26/2017","23:16","217CR0033160","T/S","T/S","KAW AND FRONT","",""
"12/26/2017","23:24","217CR0033161","MEDICAL - EMERGENCY","MEDICAL - EMERGENCY","628 W GRANITE","",""
"12/26/2017","23:51","217CR0033162","BUSINESS CHECK","BUSINESS CHECK","3700 HARRISON TOWN PUMP","",""
"12/27/2017","00:26","217CR0033163","SUSPICIOUS ACTIVITY","POSSESSION OF DANGEROUS DRUGS","1500 BLK ELM ST","ARREST(s) MADE",""
"12/27/2017","00:39","217CR0033164","T/S","CRIMINAL CONTEMPT","DEWEY AND HARRISON","ARREST(s) MADE",""
"12/27/2017","01:22","217CR0033165","UNWANTED PERSON","UNWANTED PERSON","************","",""
"12/27/2017","01:46","217CR0033166","T/S","T/S","MAIN AND ALUMINUM","",""
"12/27/2017","02:05","217CR0033167","DISTURBANCE","DISTURBANCE","3501 HARRISON THRIFTWAY","",""
"12/27/2017","02:30","217CR0033168","SUSPICIOUS ACTIVITY","SUSPICIOUS ACTIVITY","1600 BLK PHILLIPS AVE","",""
"12/27/2017","02:42","217CR0033169","UNWANTED PERSON","UNWANTED PERSON","************","",""
"12/27/2017","02:45","217CR0033170","SUSPICIOUS ACTIVITY","SUSPICIOUS ACTIVITY","2700 BLK AMHERST","",""
"12/27/2017","03:38","217CR0033171","UNWANTED PERSON","CRIMINAL CONTEMPT","2900 HARRSION/BUTTE PLAZA INN","ARREST(s) MADE",""
"12/27/2017","05:51","217CR0033172","ALARM - BURGLARY","ALARM - BURGLARY","************","",""
"12/27/2017","06:37","217CR0033173","SUSPICIOUS ACTIVITY","SUSPICIOUS ACTIVITY","843 LEXINGTON","",""
"12/27/2017","06:39","217CR0033174","ALARM - MEDICAL","ALARM - MEDICAL","************","",""
"12/27/2017","06:42","217CR0033175","ALARM - BURGLARY","ALARM - BURGLARY","************","",""
"12/27/2017","06:43","217CR0033176","DETENTION BUSINESS","DETENTION BUSINESS","************","",""
"12/27/2017","06:49","217CR0033177","UNWANTED PERSON","UNWANTED PERSON","************","",""
"12/27/2017","07:26","217CR0033179","ALARM - BURGLARY","ALARM - BURGLARY","************","",""
"12/27/2017","07:36","217CR0033180","CIVIL PAPER SERVICE","CIVIL PAPER SERVICE","706 W GALENA","",""